AGROMETEOROLOŠKI PORTAL

vinorodna pokrajina

Temelj dobrega kmetovanja

Pregled podatkov za lokacijo Žabnica (Dorfarje), meteorološka postaja 41375

Pregled senzorjev na lokaciji

ID Ime Zadnja
vrednost
Datum in čas
meritve
(lokalni čas)
Tip
senzorja
3849 Omočenost lista (1,5 m) (U) 10 U 4.7.2022 05:00 A730WET
3846 Padavine (mm) 0 mm 4.7.2022 05:00 Generic 0.2 mm
3847 Relativna zračna vlaga (2 m) (%RH) 91 %RH 4.7.2022 05:00 Generic 0 - 100 %
3848 Temperatura (2 m) (°C) 16,3 °C 4.7.2022 05:00 Generic -40 - +60 °C
6587 Smer vetra (3 m) (°) 360 ° 4.7.2022 05:00 Generic 0 - 360

Pregled podatkov zadnjih 24 ur

Zap.
št.
Datum in čas
(lokalni čas)
Žabnica (Dorfarje)
Omočenost
lista
(1,5
m)
Padavine Relativna
zračna
vlaga
(2
m)
Temperatura
(2
m)
Smer
vetra
(3
m)
1 4.7.2022 05:00 10 0 91,4 16,3 360
2 4.7.2022 04:30 10 0 90,2 16,9 354,4
3 4.7.2022 04:00 10 0 89,8 17,5 132,2
4 4.7.2022 03:30 10 0 85,1 18,3 7,8
5 4.7.2022 03:00 10 0 85,8 18,5 318,2
6 4.7.2022 02:30 10 0 82,3 19,2 345
7 4.7.2022 02:00 10 0 79,1 19,5 293,6
8 4.7.2022 01:30 10 0 78,8 19,6 340,5
9 4.7.2022 01:00 10 0 79,2 19,6 275,1
10 4.7.2022 00:30 10 0 78,5 19,8 260,5
11 4.7.2022 00:00 10 0 77,9 20,2 272,2
12 3.7.2022 23:30 10 0 73,6 21,1 256,3
13 3.7.2022 23:00 10 0 71,4 21,6 269,5
14 3.7.2022 22:30 10 0 69,8 22,3 349,2
15 3.7.2022 22:00 10 0 68,2 23,1 230,9
16 3.7.2022 21:30 10 0 65,5 24,2 263,6
17 3.7.2022 21:00 3 0 56,6 25,7 209,8
18 3.7.2022 20:30 0 0 50,1 26,9 171,9
19 3.7.2022 20:00 0 0 46,3 28,4 196,6
20 3.7.2022 19:30 0 0 44,2 29,2 201,8
21 3.7.2022 19:00 0 0 42,5 29,9 196,3
22 3.7.2022 18:30 0 0 41,3 30,5 191,7
23 3.7.2022 18:00 0 0 39,8 31 179,4
24 3.7.2022 17:30 0 0 38,7 31,3 156,7
25 3.7.2022 17:00 0 0 36,3 31,6 159,5
26 3.7.2022 16:30 0 0 37 31,6 135,9
27 3.7.2022 16:00 0 0 38,5 31,2 162,2
28 3.7.2022 15:30 0 0 39,5 31 112,2
29 3.7.2022 15:00 0 0 39,8 30,5 161,7
30 3.7.2022 14:30 0 0 41,8 29,9 171,3
31 3.7.2022 14:00 0 0 42,8 28,9 188,4
32 3.7.2022 13:30 0 0 43,8 28,4 174,8
33 3.7.2022 13:00 0 0 45,2 28,1 215,6
34 3.7.2022 12:30 0 0 45,8 27,3 156,4
35 3.7.2022 12:00 1 0 46,4 26,8 235,3
36 3.7.2022 11:30 0 0 49,7 25,9 209,7
37 3.7.2022 11:00 0 0 51,2 25,2 235,3
38 3.7.2022 10:30 0 0 54,6 24,4 117
39 3.7.2022 10:00 0 0 59,5 23,7 300,3
40 3.7.2022 09:30 0 0 64,8 22,4 84,7
41 3.7.2022 09:00 0 0 69,2 21,3 98,8
42 3.7.2022 08:30 0 0 74,9 19,9 95,1
43 3.7.2022 08:00 1 0 80,9 18,5 248,4
44 3.7.2022 07:30 10 0 85,5 17,4 154,9
45 3.7.2022 07:00 10 0 88,8 16,1 229,7
46 3.7.2022 06:30 10 0 90,1 15,5 300,3